Location: ???????
(55.4362°N, 38.1183°E)
Time: 20:11:36
(UTC+00:00)

SL-4 R/B - Pass Details

Date: 04 November 2021
Orbit: 427 x 661 km, 51.6° (Epoch: 27 November)

Event Time Altitude Azimuth Distance (km) Brightness Sun altitude
Rises 15:23:34 0° 187° (S) 2,923 5.9 -14.5°
Reaches altitude 10° 15:27:17 10° 157° (SSE) 2,051 4.7 -15.0°
Enters shadow 15:29:02 12° 135° (SE) 1,930 4.4 -15.3°
